Location: American Canyon
(38.1966°N, 122.1514°W)
Time: 17:08:31
(UTC+00:00)

Lacrosse 5 rocket - Pass Details

Date: 29 October 2020
Orbit: 458 x 638 km, 57.0° (Epoch: 23 November)

Event Time Altitude Azimuth Distance (km) Brightness Sun altitude
Exits shadow 12:18:35 11° 18° (NNE) 1,591 3.9 -26.8°
Drops below altitude 10° 12:18:52 10° 20° (NNE) 1,691 4.1 -26.7°
Sets 12:21:15 0° 33° (NNE) 2,569 5.2 -26.2°
